Location: *
(44.3526°S, 44.9014°W)
Time: 23:41:08
(UTC+00:00)

SL-08 R/B - Pass Details

Date: 13 May 2025
Orbit: 668 x 730 km, 98.5° (Epoch: 14 June)

Event Time Altitude Azimuth Distance (km) Brightness Sun altitude
Rises 21:38:22 0° 15° (NNE) 3,069 6.5 -20.4°
Reaches altitude 10° 21:40:37 10° 15° (NNE) 2,150 5.7 -20.8°
Maximum altitude 21:45:20 89° 292° (WNW) 699 3.2 -21.6°
Drops below altitude 10° 21:50:02 10° 194° (SSW) 2,147 5.9 -22.4°
Sets 21:52:17 0° 193° (SSW) 3,064 6.7 -22.8°
